www.pogodaiklimat.ru

Погода и климат >> Архив погоды >> Индонезия >> Палембанг


ПОГОДА в Палембанге

  • Прогноз погоды в Палембанге
  • Монитор погоды в Палембанге

АРХИВ ПОГОДЫ в Палембанге

Время (UTC), дата Ветер
(напр.,м/с)
 
Видим.   Явления Облачность Т
(С)
Тd
(С)
f
(%)
Тe
(С)
Тes
(С)
Комфортность P
(гПа)
Po
(гПа)
Тmin
(С)
Tmax
(С)
R
(мм)
R24
(мм)
S
(см)
21 10.06 Ю 2 10 км 6/1 300 м
[Cu hum Ac trans Ci fib]
+26.6 +25.8 95 +39 +39 очень
душно
1009.3 1007.5
00 11.06 Ю 3 6000 м мгла 8/1 300 м
[Cu hum Ac trans Ci fib]
+26.8 +25.3 92 +39 +40 очень
душно
1010.3 1008.9 +25.0
03 11.06 Ю 3 10 км 9/4 360 м
[Cu hum Ac As Ci fib]
+29.5 +26.2 82 +45 +49 опасность
перегрева
1011.4 1010.0
06 11.06 З 2 6000 м слаб. ливневой дождь, в посл. час гроза 10/4 240 м
[Cu Sc Ac As Cs]
+25.1 +24.7 98 +35 +41 очень
душно
1010.1 1008.7 19
09 11.06 ЮВ 4 6000 м слаб. дождь 10/6 300 м
[Cu hum Ac As Cs]
+26.4 +25.0 92 +38 +38 очень
душно
1009.2 1007.7 0.4
12 11.06 Ю 2 9000 м в посл. час дождь 10/5 300 м
[Cu hum Ac As]
+25.2 +24.4 95 +35 +35 очень
душно
1010.6 1009.2 +30.3 2
15 11.06 СВ 1 8000 м слаб. дождь 10/5 300 м
[Cb cap As op]
+24.5 +23.5 94 +33 +33 очень
душно
1012.8 1011.3 5
18 11.06 штиль 0 8000 м слаб. дождь 10/5 300 м
[Cu hum As op]
+25.0 +24.2 95 +34 +34 очень
душно
1011.0 1009.5 2
21 11.06 штиль 0 4000 м дымка {дождь} 9/4 300 м
[Cu hum Ac As Cs]
+24.6 +24.1 97 +34 +34 очень
душно
1009.6 1008.2 0.3
00 12.06 ЮЗ 2 6000 м дымка {дождь} 9/3 300 м
[Cu hum Ac As Cs]
+24.8 +24.1 96 +34 +35 очень
душно
1011.4 1010.0 +24.4 28
03 12.06 ЮЗ 4 10 км 9/4 300 м
[Cu hum Ac trans Ci fib]
+29.4 +26.3 83 +45 +48 опасность
перегрева
1012.4 1011.0
06 12.06 В 5 6000 м слаб. дождь 10/8 300 м
[Cb cap Ac As Cs]
+28.9 +25.6 82 +43 +43 опасность
перегрева
1010.3 1008.9 2
09 12.06 В 2 10 км {дождь} 9/5 300 м
[Cu hum Ac As Cs]
+29.9 +25.5 77 +44 +45 опасность
перегрева
1008.8 1007.4 1
12 12.06 З 2 5000 м гроза, ливневой дождь 10/6 300 м
[Cb cap As op]
+24.2 +23.1 94 +32 +32 очень
душно
1011.2 1009.8 +31.1 7
15 12.06 ЮЗ 3 10 км {гроза, дождь} 10/5 300 м
[Cu hum As op Ci fib]
+24.0 +23.2 95 +32 +32 очень
душно
1013.1 1011.7 3
18 12.06 ЮВ 2 10 км {гроза, дождь} 9/4 300 м
[Cu hum As op Ci fib]
+24.6 +24.1 97 +34 +34 очень
душно
1010.9 1009.4 3
21 12.06 штиль 0 9000 м 9/3 300 м
[Cu hum Ac As Ci fib]
+24.7 +24.0 96 +34 +34 очень
душно
1009.2 1007.8
00 13.06 штиль 0 7000 м слаб. дождь 10/3 300 м
[Cu hum Ac As Ci fib]
+24.5 +23.7 95 +33 +34 очень
душно
1011.0 1009.6 +23.8 0.0
03 13.06 ЮВ 3 10 км {дождь} 9/5 300 м
[Cu hum Ac As Cs]
+27.4 +25.4 89 +40 +43 очень
душно
1011.8 1010.4 0.0
06 13.06 В 2 10 км слаб. дождь 8/5 300 м
[Cu hum Ac trans Ci sp]
+28.7 +25.8 84 +43 +48 опасность
перегрева
1010.3 1008.9 0.4
09 13.06 В 3 10 км {дождь} 9/6 300 м
[Cu hum Ac As Cs]
+29.4 +25.2 78 +43 +44 опасность
перегрева
1008.9 1007.4 0.0
12 13.06 ЮВ 3 10 км {дождь} 9/6 300 м
[Cu hum Ac As Cs]
+28.3 +24.5 80 +40 +40 очень
душно
1010.7 1009.3 +29.6 0.0
15 13.06 ЮВ 2 10 км 8/4 300 м
[Cu hum Ac As Cs]
+27.4 +25.2 88 +40 +40 очень
душно
1012.4 1011.0
18 13.06 ЮВ 1 10 км 6/3 300 м
[Cu hum Ac As Ci fib]
+26.8 +25.2 91 +39 +39 очень
душно
1010.7 1009.2
21 13.06 штиль 0 5000 м дымка 6/1 300 м
[Cu hum Ac As Ci fib]
+25.7 +24.9 95 +36 +36 очень
душно
1009.2 1007.8
00 14.06 штиль 0 5000 м дымка 6/1 300 м
[Cu hum Ac trans Ci fib]
+25.4 +24.6 95 +36 +37 очень
душно
1010.5 1009.0 +24.5 0.4
03 14.06 Ю 3 10 км 8/5 300 м
[Cu hum Ac trans Ci fib]
+29.4 +25.7 81 +44 +48 опасность
перегрева
1011.3 1009.9
06 14.06 Ю 3 10 км 9/6 300 м
[Cu hum Ac trans Ci fib]
+31.6 +24.0 64 +43 +47 опасность
перегрева
1009.2 1007.8
09 14.06 СВ 2 10 км {дождь} 9/6 300 м
[Cb cap Ac As Cs]
+30.6 +24.9 72 +44 +45 опасность
перегрева
1007.1 1005.7 0.4
12 14.06 ЮВ 1 8000 м мгла {дождь} 9/3 300 м
[Cu hum Ac trans Ci fib]
+27.9 +24.9 84 +40 +40 очень
душно
1008.9 1007.5 +32.7 0.4
15 14.06 С 2 8000 м мгла 9/8 300 м
[Cb cap Ac As Cs]
+26.7 +25.2 91 +38 +38 очень
душно
1011.8 1010.4
18 14.06 В 2 6000 м мгла 9/6 300 м
[Cu hum Ac As Cs]
+26.4 +25.2 93 +38 +38 очень
душно
1010.9 1009.4
21 14.06 ЮВ 2 6000 м дымка 9/6 300 м
[Cu hum Ac As Cs]
+26.1 +25.3 95 +38 +38 очень
душно
1009.6 1008.2
00 15.06 В 2 10 км 10/6 300 м
[Cu hum Ac As Cs]
+25.7 +24.6 94 +36 +36 очень
душно
1010.8 1009.4 +25.4 0.4
03 15.06 ЮВ 4 10 км 9/4 300 м
[Cu hum Ac trans Ci fib]
+30.2 +25.2 75 +44 +47 опасность
перегрева
1011.7 1010.3
06 15.06 ЮВ 4 10 км 9/5 300 м
[Cu hum Ac As Ci fib]
+31.0 +24.9 70 +44 +48 опасность
перегрева
1009.5 1008.1
09 15.06 Ю 3 10 км 10/6 300 м
[Cb cap Ac As Cs]
+31.6 +24.2 65 +44 +45 опасность
перегрева
1007.6 1006.2
12 15.06 СЗ 1 10 км зарница 10/6 300 м
[Cb cap Ac As Cs]
+27.4 +25.2 88 +40 +40 очень
душно
1009.9 1008.5 +32.2
15 15.06 штиль 0 5000 м зарница 10/6 300 м
[Cb cap Ac As Cs]
+26.8 +25.3 92 +39 +39 очень
душно
1011.8 1010.3
18 15.06 СЗ 1 4000 м мгла 9/6 300 м
[Cb cap Ac As Cs]
+25.8 +25.2 96 +37 +37 очень
душно
1010.9 1009.5
21 15.06 штиль 0 6000 м мгла 9/5 300 м
[Cu hum Ac As Cs]
+25.1 +24.2 95 +35 +35 очень
душно
1009.9 1008.5
00 16.06 З 2 6000 м мгла 9/3 300 м
[Cu hum Ac trans Ci fib]
+25.0 +24.6 98 +35 +36 очень
душно
1011.4 1010.4 +24.8
03 16.06 Ю 3 10 км 8/1 300 м
[Cu hum Ac As Ci fib]
+28.3 +24.9 82 +41 +47 опасность
перегрева
1012.4 1011.0
06 16.06 ЮВ 6 10 км 9/6 300 м
[Cb cap Ac As Cs]
+30.8 +24.4 69 +43 +45 опасность
перегрева
1010.7 1009.3
09 16.06 ЮВ 2 10 км 9/4 300 м
[Cu hum Ac trans Ci fib]
+30.0 +24.7 73 +43 +44 опасность
перегрева
1008.9 1007.5
12 16.06 В 2 10 км 6/1 300 м
[Cu hum Ac trans Ci fib]
+28.2 +24.4 80 +40 +40 очень
душно
1009.9 1008.4 +31.5
15 16.06 ЮВ 3 10 км 6/3 300 м
[Cu hum Ac trans Ci fib]
+27.1 +25.3 90 +39 +39 очень
душно
1011.5 1010.1
18 16.06 Ю 2 10 км 6/1 300 м
[Cu hum Ac trans Ci fib]
+25.5 +24.7 95 +36 +36 очень
душно
1010.9 1009.5
21 16.06 Ю 2 10 км 6/1 300 м
[Cu hum Ac trans Ci fib]
+25.1 +24.7 98 +35 +35 очень
душно
1008.8 1006.3
00 17.06 Ю 1 5000 м дымка 6/1 300 м
[Cu hum Ac trans Ci fib]
+25.3 +24.6 96 +36 +36 очень
душно
1010.7 1009.3 +24.8
03 17.06 Ю 4 10 км 10/6 300 м
[Cu hum Ac As Cs]
+29.0 +25.5 81 +43 +44 опасность
перегрева
1011.6 1010.2
06 17.06 В 8 4000 м гроза, ливневой дождь 10/8 300 м
[Cb cap As op]
+28.3 +26.0 87 +42 +43 опасность
перегрева
1009.9 1008.4 0.0
09 17.06 ЮВ 3 10 км {гроза, дождь} 6/3 300 м
[Cb cap Ac As Ci fib]
+29.6 +24.9 76 +42 +44 опасность
перегрева
1008.1 1006.7 3
12 17.06 ЮВ 2 10 км зарница {гроза, дождь} 8/3 300 м
[Cb cap Ac As Cs]
+28.6 +25.2 82 +42 +42 опасность
перегрева
1009.7 1008.3 +30.8 3
15 17.06 штиль 0 9000 м 6/3 300 м
[Cu hum Ac trans Ci fib]
+27.3 +26.1 93 +41 +41 опасность
перегрева
1011.5 1010.1
18 17.06 ЮЗ 1 6000 м мгла 5/1 300 м
[Cu hum Ac trans Ci fib]
+25.4 +24.4 94 +35 +35 очень
душно
1011.0 1009.5

 

Местоположение метеостанции Палембанг (Индонезия): широта -2.90 долгота 104.70 высота над уровнем моря 10 м.

В архиве по умолчанию представлена погода в Палембанге за последнюю неделю. Архивные данные за месяц целиком и за предыдущие месяцы, начиная с января 2011 года, Вы можете получить, выбрав интересующий диапазон дат из раскрывающегося списка и нажав кнопку "Ввод!".


*Определитесь, кто Вы:
робот инопланетянин человек

Внимание! Время в таблицах - всемирное. Для получения местного времени необходимо прибавить поправку, которая равна 7 ч.

Смотрите также архив погоды в соседних городах и на ближайших метеорологических станциях:

Погода в Панкалпинанге (Индонезия) (178 км)
Погода в Джамби (Индонезия) (183 км)
Погода в Танджунгкаранге (Индонезия) (250 км)
Погода в Аэропорту Дабо (Индонезия) (269 км)
Погода в Бенкулу (Индонезия) (285 км)
Погода в Танджунгпандане (Индонезия) (339 км)
Погода на Керинчи (Индонезия) (371 км)
Погода в Аэропорту Япура (Индонезия) (390 км)
Погода в Серанге (Индонезия) (392 км)
Погода в Аэропорту Сукарно-Хатта (Индонезия) (418 км)

Пояснения к столбцам:

Ветер - указаны скорость ветра в м/с - средняя за 10 мин, порывы в срок и между сроками (в фигурных скобках) и направление, откуда дует ветер: С - северный, СВ - северо-восточный, В - восточный, ЮВ - юго-восточный, Ю - южный, ЮЗ - юго-западный, З - западный, СЗ - северо-западный.
Видимость - горизонтальная дальность видимости в метрах или километрах. При видимости от 1 до 10 км при отсутствии осадков обычно наблюдается дымка, при ухудшении видимости до 1 км и менее - туман. В сухую погоду видимость может ухудшаться дымом, пылью или мглою.
Явления - указаны атмосферные явления, наблюдавшиеся в срок или в последний час перед сроком; фигурными скобками обозначены явления, наблюдавшиеся между сроками (за 1-3 часа до срока); квадратными скобками обозначены град или гололедные отложения с указанием их диаметра в мм.
Облачность - указаны через наклонную черту общая и нижняя облачность в баллах и высота нижней границы облаков в метрах; квадратными скобками обозначены формы облаков: Ci - перистые, Cs - перисто-слоистые, Cc - перисто-кучевые, Ac - высококучевые, As - высокослоистые, Sc - слоисто-кучевые, Ns - слоисто-дождевые, Cu - кучевые, Cb - кучево-дождевые. Подробнее классификацию облаков см. в Атласе облаков (PDF).
T - Температура воздуха - температура, измеренная на высоте 2 м над землей.
Td - Температура точки росы - температура, при понижении до которой содержащийся в воздухе водяной пар достигнет насыщения.
f - Относительная влажность воздуха - влажноcть воздуха, измеренная на высоте 2 м над землей.
Te - Эффективная температура - температура, которую ощущает одетый по сезону человек в тени. Характеристика душности погоды. При расчете учитывается влияние влажности воздуха и скорости ветра на теплоощущения человека.
Tes - Эффективная температура на солнце - температура, которую ощущает человек, с поправкой на солнечный нагрев. Характеристика знойности погоды. Зависит от высоты солнца над горизонтом, облачности и скорости ветра. Ночью, в пасмурную погоду, а также при ветре 12 м/с и более поправка равна нулю.
P - Атмосферное давление - приведенное к уровню моря атмосферное давление.
Po - Атмосферное давление - измеренное на уровне метеостанции атмосферное давление.
Tmin - Минимальная температура - минимум температуры воздуха на высоте 2 м над землей.
Tmax - Максимальная температура - максимум температуры воздуха на высоте 2 м над землей.
R - Количество осадков - Количество выпавших осадков за период времени, мм. При наведении курсора мыши на число - период времени, за который выпало указанное количество осадков.
R24 - Количество осадков - Количество выпавших осадков за 24 часа, мм.
S - Снежный покров - Высота снежного покрова, см. При наведении курсора мыши на число - состояние снежного покрова и степень покрытия местности в баллах.